TimeCDT,TemperatureF,Dew PointF,Humidity,Sea Level PressureIn,VisibilityMPH,Wind Direction,Wind SpeedMPH,Gust SpeedMPH,PrecipitationIn,Events,Conditions,WindDirDegrees,DateUTC
12:53 AM,66.9,48.0,51,29.98,10.0,Calm,Calm,-,N/A,,Clear,0,2012-09-01 05:53:00
1:53 AM,66.9,48.0,51,29.98,10.0,Calm,Calm,-,N/A,,Clear,0,2012-09-01 06:53:00
2:53 AM,60.1,46.9,62,29.98,10.0,ENE,4.6,-,N/A,,Clear,70,2012-09-01 07:53:00
3:53 AM,62.1,48.0,60,29.98,10.0,Calm,Calm,-,N/A,,Clear,0,2012-09-01 08:53:00
4:53 AM,57.0,48.0,72,29.99,10.0,Calm,Calm,-,N/A,,Clear,0,2012-09-01 09:53:00
5:53 AM,57.0,48.0,72,29.98,9.0,Calm,Calm,-,N/A,,Clear,0,2012-09-01 10:53:00
6:53 AM,52.0,46.9,83,30.01,9.0,Calm,Calm,-,N/A,,Clear,0,2012-09-01 11:53:00
7:53 AM,54.0,48.0,80,30.03,7.0,Calm,Calm,-,N/A,,Clear,0,2012-09-01 12:53:00
8:53 AM,63.0,48.9,60,30.04,10.0,Calm,Calm,-,N/A,,Clear,0,2012-09-01 13:53:00
9:53 AM,73.0,48.9,42,30.03,10.0,Calm,Calm,-,N/A,,Clear,0,2012-09-01 14:53:00
10:53 AM,82.0,51.1,34,30.01,10.0,Variable,3.5,-,N/A,,Clear,0,2012-09-01 15:53:00
11:53 AM,90.0,53.1,28,30.00,10.0,ESE,6.9,-,N/A,,Clear,120,2012-09-01 16:53:00
12:53 PM,95.0,46.9,19,29.97,10.0,South,8.1,17.3,N/A,,Clear,170,2012-09-01 17:53:00
1:53 PM,97.0,44.1,16,29.94,10.0,South,12.7,-,N/A,,Clear,180,2012-09-01 18:53:00
2:53 PM,98.6,42.8,15,30.01,10.0,SSE,9.2,17.3,N/A,,Clear,160,2012-09-01 19:53:00
3:53 PM,98.1,42.1,15,29.90,10.0,SW,13.8,18.4,N/A,,Clear,220,2012-09-01 20:53:00
4:53 PM,99.0,42.1,14,29.89,10.0,South,11.5,-,N/A,,Clear,170,2012-09-01 21:53:00
5:53 PM,97.0,45.0,17,29.88,10.0,South,16.1,25.3,N/A,,Clear,170,2012-09-01 22:53:00
6:53 PM,93.9,46.0,19,29.88,10.0,SSE,13.8,19.6,N/A,,Clear,150,2012-09-01 23:53:00
7:53 PM,90.0,46.0,22,29.88,10.0,SSE,12.7,-,N/A,,Clear,150,2012-09-02 00:53:00
8:53 PM,84.0,48.0,28,29.89,10.0,SE,10.4,-,N/A,,Clear,140,2012-09-02 01:53:00
9:53 PM,79.0,48.0,34,29.91,10.0,SE,8.1,-,N/A,,Clear,130,2012-09-02 02:53:00
10:53 PM,75.9,51.1,42,29.91,10.0,SE,4.6,-,N/A,,Clear,140,2012-09-02 03:53:00
11:53 PM,75.0,53.1,46,29.91,10.0,SSE,8.1,-,N/A,,Clear,150,2012-09-02 04:53:00